Time,TemperatureF,DewpointF,PressureIn,WindDirection,WindDirectionDegrees,WindSpeedMPH,WindSpeedGustMPH,Humidity,HourlyPrecipIn,Conditions,Clouds,dailyrainin,SoftwareType,DateUTC
2013-09-01 00:00:00,59.2,48.2,29.57,SE,140,0.0,4.0,67,0.00,,,0.00,Wunderground v.1.15,2013-09-01 06:00:00,
2013-09-01 00:05:00,59.0,48.1,29.56,SE,140,0.0,4.0,67,0.00,,,0.00,Wunderground v.1.15,2013-09-01 06:05:00,
2013-09-01 00:10:00,58.9,48.0,29.57,SE,140,0.0,4.0,67,0.00,,,0.00,Wunderground v.1.15,2013-09-01 06:10:00,
2013-09-01 00:15:00,58.7,48.6,29.57,SE,140,0.0,4.0,69,0.00,,,0.00,Wunderground v.1.15,2013-09-01 06:15:00,
2013-09-01 00:20:00,58.5,48.0,29.57,SE,140,0.0,4.0,68,0.00,,,0.00,Wunderground v.1.15,2013-09-01 06:20:00,
2013-09-01 00:25:00,58.4,47.9,29.57,SE,140,0.0,4.0,68,0.00,,,0.00,Wunderground v.1.15,2013-09-01 06:25:00,
2013-09-01 00:30:00,58.2,47.7,29.57,SE,140,0.0,4.0,68,0.00,,,0.00,Wunderground v.1.15,2013-09-01 06:30:00,
2013-09-01 00:35:00,58.1,48.0,29.57,SE,140,0.0,4.0,69,0.00,,,0.00,Wunderground v.1.15,2013-09-01 06:35:00,
2013-09-01 00:40:00,57.8,48.1,29.57,SE,140,0.0,4.0,70,0.00,,,0.00,Wunderground v.1.15,2013-09-01 06:40:00,
2013-09-01 00:45:00,57.6,47.9,29.57,SE,140,0.0,4.0,70,0.00,,,0.00,Wunderground v.1.15,2013-09-01 06:45:00,
2013-09-01 00:50:00,57.6,47.9,29.57,SE,140,0.0,4.0,70,0.00,,,0.00,Wunderground v.1.15,2013-09-01 06:50:00,
2013-09-01 00:55:00,57.5,48.2,29.57,SE,140,0.0,4.0,71,0.00,,,0.00,Wunderground v.1.15,2013-09-01 06:55:00,
2013-09-01 01:00:00,57.4,48.1,29.57,SE,140,0.0,4.0,71,0.00,,,0.00,Wunderground v.1.15,2013-09-01 07:00:00,
2013-09-01 01:05:00,57.3,48.0,29.57,SE,140,0.0,4.0,71,0.00,,,0.00,Wunderground v.1.15,2013-09-01 07:05:00,
2013-09-01 01:10:00,57.3,48.0,29.57,SE,140,0.0,4.0,71,0.00,,,0.00,Wunderground v.1.15,2013-09-01 07:10:00,
2013-09-01 01:15:00,57.2,47.9,29.57,SE,140,0.0,4.0,71,0.00,,,0.00,Wunderground v.1.15,2013-09-01 07:15:00,
2013-09-01 01:20:00,57.2,47.9,29.57,SE,140,0.0,4.0,71,0.00,,,0.00,Wunderground v.1.15,2013-09-01 07:20:00,
2013-09-01 01:25:00,57.1,48.2,29.57,SE,140,0.0,4.0,72,0.00,,,0.00,Wunderground v.1.15,2013-09-01 07:25:00,
2013-09-01 01:30:00,57.1,48.9,29.57,SE,140,0.0,4.0,74,0.00,,,0.00,Wunderground v.1.15,2013-09-01 07:30:00,
2013-09-01 01:35:00,57.0,49.2,29.57,SE,140,0.0,4.0,75,0.00,,,0.00,Wunderground v.1.15,2013-09-01 07:35:00,
2013-09-01 01:40:00,57.0,48.8,29.56,SE,140,0.0,4.0,74,0.00,,,0.00,Wunderground v.1.15,2013-09-01 07:40:00,
2013-09-01 01:45:00,56.8,49.0,29.56,SE,140,0.0,4.0,75,0.00,,,0.00,Wunderground v.1.15,2013-09-01 07:45:00,
2013-09-01 01:50:00,56.6,48.8,29.56,SE,140,0.0,4.0,75,0.00,,,0.00,Wunderground v.1.15,2013-09-01 07:50:00,
2013-09-01 01:55:00,56.5,48.7,29.56,SE,140,0.0,4.0,75,0.00,,,0.00,Wunderground v.1.15,2013-09-01 07:55:00,
2013-09-01 02:00:00,56.5,49.0,29.56,SE,140,0.0,4.0,76,0.00,,,0.00,Wunderground v.1.15,2013-09-01 08:00:00,
2013-09-01 02:05:00,56.4,49.3,29.56,SE,140,0.0,4.0,77,0.00,,,0.00,Wunderground v.1.15,2013-09-01 08:05:00,
2013-09-01 02:10:00,56.3,49.2,29.56,SE,140,0.0,4.0,77,0.00,,,0.00,Wunderground v.1.15,2013-09-01 08:10:00,
2013-09-01 02:15:00,56.2,49.1,29.56,SE,140,0.0,4.0,77,0.00,,,0.00,Wunderground v.1.15,2013-09-01 08:15:00,
2013-09-01 02:20:00,56.1,48.6,29.56,SE,140,0.0,4.0,76,0.00,,,0.00,Wunderground v.1.15,2013-09-01 08:20:00,
2013-09-01 02:25:00,56.0,48.5,29.56,SE,140,0.0,4.0,76,0.00,,,0.00,Wunderground v.1.15,2013-09-01 08:25:00,
2013-09-01 02:30:00,55.9,48.4,29.56,SE,140,0.0,4.0,76,0.00,,,0.00,Wunderground v.1.15,2013-09-01 08:30:00,
2013-09-01 02:35:00,55.8,48.3,29.56,SE,140,0.0,4.0,76,0.00,,,0.00,Wunderground v.1.15,2013-09-01 08:35:00,
2013-09-01 02:40:00,55.7,48.2,29.56,SE,140,0.0,4.0,76,0.00,,,0.00,Wunderground v.1.15,2013-09-01 08:40:00,
2013-09-01 02:45:00,55.7,48.2,29.56,SE,140,0.0,4.0,76,0.00,,,0.00,Wunderground v.1.15,2013-09-01 08:45:00,
2013-09-01 02:50:00,55.7,48.2,29.56,SE,140,0.0,4.0,76,0.00,,,0.00,Wunderground v.1.15,2013-09-01 08:50:00,
2013-09-01 02:55:00,55.7,48.2,29.56,SE,140,0.0,4.0,76,0.00,,,0.00,Wunderground v.1.15,2013-09-01 08:55:00,
2013-09-01 03:00:00,55.7,48.2,29.56,SE,140,0.0,4.0,76,0.00,,,0.00,Wunderground v.1.15,2013-09-01 09:00:00,
2013-09-01 03:10:00,55.6,48.5,29.56,SE,140,0.0,4.0,77,0.00,,,0.00,Wunderground v.1.15,2013-09-01 09:10:00,
2013-09-01 03:20:00,55.5,47.7,29.56,SE,140,0.0,4.0,75,0.00,,,0.00,Wunderground v.1.15,2013-09-01 09:20:00,
2013-09-01 03:25:00,55.5,48.1,29.56,SE,140,0.0,4.0,76,0.00,,,0.00,Wunderground v.1.15,2013-09-01 09:25:00,
2013-09-01 03:30:00,55.5,47.7,29.55,SE,140,0.0,4.0,75,0.00,,,0.00,Wunderground v.1.15,2013-09-01 09:30:00,
2013-09-01 03:35:00,55.5,47.3,29.55,SE,140,0.0,4.0,74,0.00,,,0.00,Wunderground v.1.15,2013-09-01 09:35:00,
2013-09-01 03:40:00,55.6,47.8,29.55,SE,140,0.0,4.0,75,0.00,,,0.00,Wunderground v.1.15,2013-09-01 09:40:00,
2013-09-01 03:45:00,55.5,47.7,29.55,SE,140,0.0,4.0,75,0.00,,,0.00,Wunderground v.1.15,2013-09-01 09:45:00,
2013-09-01 03:50:00,55.4,48.0,29.55,SE,140,0.0,4.0,76,0.00,,,0.00,Wunderground v.1.15,2013-09-01 09:50:00,
2013-09-01 03:55:00,55.3,47.9,29.55,SE,140,0.0,4.0,76,0.00,,,0.00,Wunderground v.1.15,2013-09-01 09:55:00,
2013-09-01 04:00:00,55.2,47.4,29.55,SE,140,0.0,4.0,75,0.00,,,0.00,Wunderground v.1.15,2013-09-01 10:00:00,
2013-09-01 04:05:00,55.2,47.4,29.55,SE,140,0.0,4.0,75,0.00,,,0.00,Wunderground v.1.15,2013-09-01 10:05:00,
2013-09-01 04:10:00,55.2,47.8,29.55,SE,140,0.0,4.0,76,0.00,,,0.00,Wunderground v.1.15,2013-09-01 10:10:00,
2013-09-01 04:15:00,55.1,47.7,29.55,SE,140,0.0,4.0,76,0.00,,,0.00,Wunderground v.1.15,2013-09-01 10:15:00,
2013-09-01 04:20:00,55.1,47.7,29.55,SE,140,0.0,4.0,76,0.00,,,0.00,Wunderground v.1.15,2013-09-01 10:20:00,
2013-09-01 04:25:00,55.1,47.7,29.55,SE,140,0.0,4.0,76,0.00,,,0.00,Wunderground v.1.15,2013-09-01 10:25:00,
2013-09-01 04:30:00,54.9,47.5,29.55,SE,140,0.0,4.0,76,0.00,,,0.00,Wunderground v.1.15,2013-09-01 10:30:00,
2013-09-01 04:35:00,54.7,47.6,29.55,SE,140,0.0,4.0,77,0.00,,,0.00,Wunderground v.1.15,2013-09-01 10:35:00,
2013-09-01 04:40:00,54.6,47.5,29.55,SE,140,0.0,4.0,77,0.00,,,0.00,Wunderground v.1.15,2013-09-01 10:40:00,
2013-09-01 04:45:00,54.4,47.3,29.55,SE,140,0.0,4.0,77,0.00,,,0.00,Wunderground v.1.15,2013-09-01 10:45:00,
2013-09-01 04:50:00,54.2,47.1,29.55,SE,140,0.0,4.0,77,0.00,,,0.00,Wunderground v.1.15,2013-09-01 10:50:00,
2013-09-01 04:55:00,54.1,47.0,29.55,SE,140,0.0,4.0,77,0.00,,,0.00,Wunderground v.1.15,2013-09-01 10:55:00,
2013-09-01 05:00:00,53.9,46.9,29.56,SE,140,0.0,4.0,77,0.00,,,0.00,Wunderground v.1.15,2013-09-01 11:00:00,
2013-09-01 05:05:00,53.7,47.0,29.56,SE,140,0.0,4.0,78,0.00,,,0.00,Wunderground v.1.15,2013-09-01 11:05:00,
2013-09-01 05:10:00,53.4,47.0,29.56,SE,140,0.0,4.0,79,0.00,,,0.00,Wunderground v.1.15,2013-09-01 11:10:00,
2013-09-01 05:15:00,53.1,46.8,29.56,SE,140,0.0,4.0,79,0.00,,,0.00,Wunderground v.1.15,2013-09-01 11:15:00,
2013-09-01 05:20:00,52.8,46.5,29.56,SE,140,0.0,4.0,79,0.00,,,0.00,Wunderground v.1.15,2013-09-01 11:20:00,
2013-09-01 05:25:00,52.4,46.4,29.56,SE,140,0.0,4.0,80,0.00,,,0.00,Wunderground v.1.15,2013-09-01 11:25:00,
2013-09-01 05:30:00,52.1,46.4,29.57,SE,140,0.0,4.0,81,0.00,,,0.00,Wunderground v.1.15,2013-09-01 11:30:00,
2013-09-01 05:35:00,51.7,46.1,29.57,SE,140,0.0,4.0,81,0.00,,,0.00,Wunderground v.1.15,2013-09-01 11:35:00,
2013-09-01 05:40:00,51.4,45.8,29.57,SE,140,0.0,4.0,81,0.00,,,0.00,Wunderground v.1.15,2013-09-01 11:40:00,
2013-09-01 05:45:00,51.0,45.7,29.57,SE,140,0.0,4.0,82,0.00,,,0.00,Wunderground v.1.15,2013-09-01 11:45:00,
2013-09-01 05:50:00,50.7,45.7,29.57,SE,140,0.0,4.0,83,0.00,,,0.00,Wunderground v.1.15,2013-09-01 11:50:00,
2013-09-01 05:55:00,50.3,45.3,29.57,SE,140,0.0,4.0,83,0.00,,,0.00,Wunderground v.1.15,2013-09-01 11:55:00,
2013-09-01 06:00:00,50.1,45.5,29.57,SE,140,0.0,4.0,84,0.00,,,0.00,Wunderground v.1.15,2013-09-01 12:00:00,
2013-09-01 06:05:00,50.0,45.7,29.57,SE,140,0.0,4.0,85,0.00,,,0.00,Wunderground v.1.15,2013-09-01 12:05:00,
2013-09-01 06:10:00,49.8,45.5,29.57,SE,140,0.0,4.0,85,0.00,,,0.00,Wunderground v.1.15,2013-09-01 12:10:00,
2013-09-01 06:15:00,49.8,45.8,29.57,SE,140,0.0,4.0,86,0.00,,,0.00,Wunderground v.1.15,2013-09-01 12:15:00,
2013-09-01 06:20:00,49.7,45.7,29.58,SE,140,0.0,4.0,86,0.00,,,0.00,Wunderground v.1.15,2013-09-01 12:20:00,
2013-09-01 06:25:00,49.8,46.1,29.58,SE,140,0.0,4.0,87,0.00,,,0.00,Wunderground v.1.15,2013-09-01 12:25:00,
2013-09-01 06:30:00,49.9,46.2,29.58,SE,140,0.0,4.0,87,0.00,,,0.00,Wunderground v.1.15,2013-09-01 12:30:00,
2013-09-01 06:35:00,49.9,45.9,29.58,SE,140,0.0,4.0,86,0.00,,,0.00,Wunderground v.1.15,2013-09-01 12:35:00,
2013-09-01 06:40:00,50.1,46.1,29.58,SE,140,0.0,4.0,86,0.00,,,0.00,Wunderground v.1.15,2013-09-01 12:40:00,
2013-09-01 06:45:00,50.3,46.6,29.58,SE,140,0.0,4.0,87,0.00,,,0.00,Wunderground v.1.15,2013-09-01 12:45:00,
2013-09-01 06:50:00,50.5,46.5,29.58,SE,140,0.0,4.0,86,0.00,,,0.00,Wunderground v.1.15,2013-09-01 12:50:00,
2013-09-01 06:55:00,50.6,46.9,29.59,SE,140,0.0,4.0,87,0.00,,,0.00,Wunderground v.1.15,2013-09-01 12:55:00,
2013-09-01 07:00:00,50.8,47.1,29.59,SE,140,0.0,4.0,87,0.00,,,0.00,Wunderground v.1.15,2013-09-01 13:00:00,
2013-09-01 07:05:00,51.0,47.0,29.59,SE,140,0.0,4.0,86,0.00,,,0.00,Wunderground v.1.15,2013-09-01 13:05:00,
2013-09-01 07:10:00,51.3,47.3,29.59,SE,140,0.0,4.0,86,0.00,,,0.00,Wunderground v.1.15,2013-09-01 13:10:00,
2013-09-01 07:15:00,51.5,47.5,29.59,SE,140,0.0,4.0,86,0.00,,,0.00,Wunderground v.1.15,2013-09-01 13:15:00,
2013-09-01 07:20:00,51.8,47.4,29.59,SE,140,0.0,4.0,85,0.00,,,0.00,Wunderground v.1.15,2013-09-01 13:20:00,
2013-09-01 07:25:00,52.1,47.7,29.59,SE,140,0.0,4.0,85,0.00,,,0.00,Wunderground v.1.15,2013-09-01 13:25:00,
2013-09-01 07:30:00,52.3,47.9,29.59,SE,140,0.0,4.0,85,0.00,,,0.00,Wunderground v.1.15,2013-09-01 13:30:00,
2013-09-01 07:35:00,52.5,48.1,29.59,SE,140,0.0,4.0,85,0.00,,,0.00,Wunderground v.1.15,2013-09-01 13:35:00,
2013-09-01 07:40:00,52.9,48.2,29.59,SE,140,0.0,4.0,84,0.00,,,0.00,Wunderground v.1.15,2013-09-01 13:40:00,
2013-09-01 07:45:00,53.4,48.7,29.60,SE,140,0.0,4.0,84,0.00,,,0.00,Wunderground v.1.15,2013-09-01 13:45:00,
2013-09-01 07:50:00,54.1,49.4,29.60,SE,140,0.0,4.0,84,0.00,,,0.00,Wunderground v.1.15,2013-09-01 13:50:00,
2013-09-01 07:55:00,54.8,49.4,29.60,SE,140,0.0,4.0,82,0.00,,,0.00,Wunderground v.1.15,2013-09-01 13:55:00,
2013-09-01 08:00:00,56.1,50.0,29.60,SE,140,0.0,4.0,80,0.00,,,0.00,Wunderground v.1.15,2013-09-01 14:00:00,
2013-09-01 08:10:00,59.0,50.4,29.60,SE,140,0.0,4.0,73,0.00,,,0.00,Wunderground v.1.15,2013-09-01 14:10:00,
2013-09-01 08:15:00,60.6,50.0,29.60,SE,140,0.0,4.0,68,0.00,,,0.00,Wunderground v.1.15,2013-09-01 14:15:00,
2013-09-01 08:20:00,62.2,51.1,29.60,SE,140,0.0,4.0,67,0.00,,,0.00,Wunderground v.1.15,2013-09-01 14:20:00,
2013-09-01 08:25:00,63.1,50.7,29.60,SE,140,0.0,4.0,64,0.00,,,0.00,Wunderground v.1.15,2013-09-01 14:25:00,
2013-09-01 08:35:00,63.2,50.4,29.60,SE,140,0.0,4.0,63,0.00,,,0.00,Wunderground v.1.15,2013-09-01 14:35:00,
2013-09-01 08:40:00,63.2,50.8,29.60,SE,140,0.0,4.0,64,0.00,,,0.00,Wunderground v.1.15,2013-09-01 14:40:00,
2013-09-01 08:50:00,62.8,50.0,29.60,SE,141,0.0,4.0,63,0.00,,,0.00,Wunderground v.1.15,2013-09-01 14:50:00,
2013-09-01 08:55:00,62.9,50.1,29.60,SSE,153,0.0,4.0,63,0.00,,,0.00,Wunderground v.1.15,2013-09-01 14:55:00,
2013-09-01 09:00:00,63.1,50.3,29.60,SSE,168,0.0,4.0,63,0.00,,,0.00,Wunderground v.1.15,2013-09-01 15:00:00,
2013-09-01 09:05:00,63.5,50.7,29.60,West,263,0.0,4.0,63,0.00,,,0.00,Wunderground v.1.15,2013-09-01 15:05:00,
2013-09-01 09:10:00,63.9,51.1,29.60,WSW,255,0.0,4.0,63,0.00,,,0.00,Wunderground v.1.15,2013-09-01 15:10:00,
2013-09-01 09:15:00,64.0,50.7,29.60,WSW,252,0.0,4.0,62,0.00,,,0.00,Wunderground v.1.15,2013-09-01 15:15:00,
2013-09-01 09:20:00,64.1,50.4,29.60,WSW,252,0.0,4.0,61,0.00,,,0.00,Wunderground v.1.15,2013-09-01 15:20:00,
2013-09-01 09:25:00,64.4,49.8,29.60,WSW,252,0.0,4.0,59,0.00,,,0.00,Wunderground v.1.15,2013-09-01 15:25:00,
2013-09-01 09:30:00,65.1,49.5,29.60,WSW,252,0.0,4.0,57,0.00,,,0.00,Wunderground v.1.15,2013-09-01 15:30:00,
2013-09-01 09:35:00,65.9,49.8,29.60,North,10,0.0,4.0,56,0.00,,,0.00,Wunderground v.1.15,2013-09-01 15:35:00,
2013-09-01 09:40:00,66.8,50.1,29.60,North,11,0.0,4.0,55,0.00,,,0.00,Wunderground v.1.15,2013-09-01 15:40:00,
2013-09-01 09:45:00,67.8,50.0,29.60,SE,145,0.0,4.0,53,0.00,,,0.00,Wunderground v.1.15,2013-09-01 15:45:00,
2013-09-01 09:50:00,68.5,51.2,29.60,South,187,0.0,4.0,54,0.00,,,0.00,Wunderground v.1.15,2013-09-01 15:50:00,
2013-09-01 09:55:00,68.9,50.0,29.60,SSE,150,1.0,4.0,51,0.00,,,0.00,Wunderground v.1.15,2013-09-01 15:55:00,
2013-09-01 10:00:00,68.6,50.3,29.60,SSE,155,1.0,1.0,52,0.00,,,0.00,Wunderground v.1.15,2013-09-01 16:00:00,
2013-09-01 10:05:00,68.6,51.3,29.60,ESE,107,0.0,4.0,54,0.00,,,0.00,Wunderground v.1.15,2013-09-01 16:05:00,
2013-09-01 10:10:00,69.0,51.2,29.60,East,94,0.0,4.0,53,0.00,,,0.00,Wunderground v.1.15,2013-09-01 16:10:00,
2013-09-01 10:15:00,69.1,50.7,29.60,East,95,1.0,4.0,52,0.00,,,0.00,Wunderground v.1.15,2013-09-01 16:15:00,
2013-09-01 10:20:00,69.1,51.2,29.60,ENE,62,1.0,1.0,53,0.00,,,0.00,Wunderground v.1.15,2013-09-01 16:20:00,
2013-09-01 10:25:00,69.2,50.3,29.60,ESE,122,1.0,4.0,51,0.00,,,0.00,Wunderground v.1.15,2013-09-01 16:25:00,
2013-09-01 10:30:00,69.6,50.1,29.60,ESE,103,1.0,1.0,50,0.00,,,0.00,Wunderground v.1.15,2013-09-01 16:30:00,
2013-09-01 10:35:00,70.0,50.0,29.60,East,96,1.0,4.0,49,0.00,,,0.00,Wunderground v.1.15,2013-09-01 16:35:00,
2013-09-01 10:40:00,70.2,50.1,29.60,East,89,1.0,1.0,49,0.00,,,0.00,Wunderground v.1.15,2013-09-01 16:40:00,
2013-09-01 10:45:00,70.3,47.3,29.60,East,84,1.0,4.0,44,0.00,,,0.00,Wunderground v.1.15,2013-09-01 16:45:00,
2013-09-01 10:50:00,70.2,49.0,29.60,ENE,77,1.0,1.0,47,0.00,,,0.00,Wunderground v.1.15,2013-09-01 16:50:00,
2013-09-01 10:55:00,70.1,48.4,29.60,ESE,109,2.0,2.0,46,0.00,,,0.00,Wunderground v.1.15,2013-09-01 16:55:00,
2013-09-01 11:05:00,71.1,48.7,29.60,NE,55,1.0,4.0,45,0.00,,,0.00,Wunderground v.1.15,2013-09-01 17:05:00,
2013-09-01 11:10:00,71.2,48.2,29.60,East,95,1.0,4.0,44,0.00,,,0.00,Wunderground v.1.15,2013-09-01 17:10:00,
2013-09-01 11:15:00,71.3,48.3,29.60,ESE,123,1.0,1.0,44,0.00,,,0.00,Wunderground v.1.15,2013-09-01 17:15:00,
2013-09-01 11:20:00,71.2,48.2,29.60,ESE,119,2.0,2.0,44,0.00,,,0.00,Wunderground v.1.15,2013-09-01 17:20:00,
2013-09-01 11:25:00,71.3,47.6,29.60,East,88,1.0,1.0,43,0.00,,,0.00,Wunderground v.1.15,2013-09-01 17:25:00,
2013-09-01 11:30:00,71.6,47.9,29.60,East,98,1.0,4.0,43,0.00,,,0.00,Wunderground v.1.15,2013-09-01 17:30:00,
2013-09-01 11:40:00,72.3,47.9,29.60,ESE,105,1.0,4.0,42,0.00,,,0.00,Wunderground v.1.15,2013-09-01 17:40:00,
2013-09-01 11:45:00,72.1,47.7,29.59,ENE,75,2.0,4.0,42,0.00,,,0.00,Wunderground v.1.15,2013-09-01 17:45:00,
2013-09-01 11:50:00,72.0,48.9,29.59,SE,127,1.0,4.0,44,0.00,,,0.00,Wunderground v.1.15,2013-09-01 17:50:00,
2013-09-01 11:55:00,72.4,48.0,29.59,SSE,148,1.0,4.0,42,0.00,,,0.00,Wunderground v.1.15,2013-09-01 17:55:00,
2013-09-01 12:00:00,72.4,48.0,29.59,North,5,2.0,2.0,42,0.00,,,0.00,Wunderground v.1.15,2013-09-01 18:00:00,
2013-09-01 12:05:00,72.4,48.0,29.59,ENE,61,2.0,4.0,42,0.00,,,0.00,Wunderground v.1.15,2013-09-01 18:05:00,
2013-09-01 12:10:00,72.6,48.2,29.59,ESE,103,2.0,2.0,42,0.00,,,0.00,Wunderground v.1.15,2013-09-01 18:10:00,
2013-09-01 12:15:00,72.6,49.4,29.58,SE,128,1.0,4.0,44,0.00,,,0.00,Wunderground v.1.15,2013-09-01 18:15:00,
2013-09-01 12:20:00,72.8,48.4,29.58,East,96,2.0,2.0,42,0.00,,,0.00,Wunderground v.1.15,2013-09-01 18:20:00,
2013-09-01 12:25:00,72.8,48.4,29.57,ENE,63,2.0,3.0,42,0.00,,,0.00,Wunderground v.1.15,2013-09-01 18:25:00,
2013-09-01 12:30:00,72.8,49.0,29.57,East,95,2.0,2.0,43,0.00,,,0.00,Wunderground v.1.15,2013-09-01 18:30:00,
2013-09-01 12:35:00,73.0,49.8,29.57,East,91,2.0,4.0,44,0.00,,,0.00,Wunderground v.1.15,2013-09-01 18:35:00,
2013-09-01 12:40:00,73.1,50.5,29.57,East,92,2.0,6.0,45,0.00,,,0.00,Wunderground v.1.15,2013-09-01 18:40:00,
2013-09-01 12:45:00,73.2,50.6,29.57,East,101,3.0,6.0,45,0.00,,,0.00,Wunderground v.1.15,2013-09-01 18:45:00,
2013-09-01 12:50:00,73.3,51.8,29.57,ENE,76,2.0,4.0,47,0.00,,,0.00,Wunderground v.1.15,2013-09-01 18:50:00,
2013-09-01 12:55:00,73.4,50.8,29.57,ENE,67,1.0,4.0,45,0.00,,,0.00,Wunderground v.1.15,2013-09-01 18:55:00,
2013-09-01 13:00:00,73.4,50.8,29.57,ESE,110,1.0,5.0,45,0.00,,,0.00,Wunderground v.1.15,2013-09-01 19:00:00,
2013-09-01 13:05:00,73.3,51.3,29.57,ENE,61,2.0,5.0,46,0.00,,,0.00,Wunderground v.1.15,2013-09-01 19:05:00,
2013-09-01 13:10:00,72.8,51.4,29.57,ENE,65,2.0,4.0,47,0.00,,,0.00,Wunderground v.1.15,2013-09-01 19:10:00,
2013-09-01 13:15:00,72.9,51.5,29.57,East,98,1.0,4.0,47,0.00,,,0.00,Wunderground v.1.15,2013-09-01 19:15:00,
2013-09-01 13:20:00,73.0,51.6,29.57,ESE,115,1.0,1.0,47,0.00,,,0.00,Wunderground v.1.15,2013-09-01 19:20:00,
2013-09-01 13:25:00,71.9,51.7,29.57,SE,130,1.0,4.0,49,0.00,,,0.00,Wunderground v.1.15,2013-09-01 19:25:00,
2013-09-01 13:30:00,70.8,51.8,29.57,East,80,1.0,1.0,51,0.00,,,0.00,Wunderground v.1.15,2013-09-01 19:30:00,
2013-09-01 13:35:00,70.2,51.2,29.57,East,91,0.0,4.0,51,0.00,,,0.00,Wunderground v.1.15,2013-09-01 19:35:00,
2013-09-01 13:40:00,69.6,51.2,29.57,ESE,115,0.0,4.0,52,0.00,,,0.00,Wunderground v.1.15,2013-09-01 19:40:00,
2013-09-01 13:45:00,69.1,51.2,29.57,ESE,115,0.0,4.0,53,0.00,,,0.00,Wunderground v.1.15,2013-09-01 19:45:00,
2013-09-01 13:50:00,68.8,52.5,29.57,ESE,115,0.0,4.0,56,0.00,,,0.00,Wunderground v.1.15,2013-09-01 19:50:00,
2013-09-01 13:55:00,68.6,52.8,29.58,ESE,115,0.0,4.0,57,0.00,,,0.00,Wunderground v.1.15,2013-09-01 19:55:00,
2013-09-01 14:00:00,68.2,51.9,29.57,East,92,0.0,4.0,56,0.00,,,0.00,Wunderground v.1.15,2013-09-01 20:00:00,
2013-09-01 14:05:00,67.7,52.9,29.58,East,94,0.0,4.0,59,0.00,,,0.00,Wunderground v.1.15,2013-09-01 20:05:00,
2013-09-01 14:10:00,66.9,53.5,29.58,SE,130,0.0,4.0,62,0.00,,,0.00,Wunderground v.1.15,2013-09-01 20:10:00,
2013-09-01 14:15:00,66.1,54.0,29.57,SE,130,0.0,4.0,65,0.00,,,0.00,Wunderground v.1.15,2013-09-01 20:15:00,
2013-09-01 14:20:00,64.7,46.7,29.56,NE,46,0.0,5.0,52,0.00,,,0.01,Wunderground v.1.15,2013-09-01 20:20:00,
2013-09-01 14:25:00,63.9,46.9,29.57,NE,42,2.0,5.0,54,0.00,,,0.01,Wunderground v.1.15,2013-09-01 20:25:00,
2013-09-01 14:30:00,63.9,53.1,29.57,East,100,2.0,2.0,68,0.00,,,0.01,Wunderground v.1.15,2013-09-01 20:30:00,
2013-09-01 14:35:00,64.0,53.6,29.57,East,90,0.0,4.0,69,0.00,,,0.01,Wunderground v.1.15,2013-09-01 20:35:00,
2013-09-01 14:40:00,64.1,54.1,29.57,ENE,64,0.0,4.0,70,0.00,,,0.01,Wunderground v.1.15,2013-09-01 20:40:00,
2013-09-01 14:45:00,64.1,54.1,29.58,East,93,0.0,4.0,70,0.00,,,0.01,Wunderground v.1.15,2013-09-01 20:45:00,
2013-09-01 14:50:00,64.0,54.4,29.58,ENE,65,1.0,4.0,71,0.00,,,0.01,Wunderground v.1.15,2013-09-01 20:50:00,
2013-09-01 14:55:00,63.8,55.4,29.58,NE,36,1.0,4.0,74,0.00,,,0.01,Wunderground v.1.15,2013-09-01 20:55:00,
2013-09-01 15:00:00,63.4,56.1,29.59,SSE,156,1.0,1.0,77,0.00,,,0.01,Wunderground v.1.15,2013-09-01 21:00:00,
2013-09-01 15:05:00,63.2,55.5,29.59,ENE,75,1.0,2.0,76,0.00,,,0.01,Wunderground v.1.15,2013-09-01 21:05:00,
2013-09-01 15:10:00,63.0,54.9,29.58,ESE,105,1.0,1.0,75,0.00,,,0.01,Wunderground v.1.15,2013-09-01 21:10:00,
2013-09-01 15:15:00,62.9,54.9,29.58,ESE,106,1.0,4.0,75,0.00,,,0.01,Wunderground v.1.15,2013-09-01 21:15:00,
2013-09-01 15:25:00,63.3,55.2,29.57,ENE,58,1.0,4.0,75,0.00,,,0.01,Wunderground v.1.15,2013-09-01 21:25:00,
2013-09-01 15:30:00,63.2,55.1,29.57,ENE,72,2.0,2.0,75,0.00,,,0.01,Wunderground v.1.15,2013-09-01 21:30:00,
2013-09-01 15:35:00,63.0,54.9,29.57,NE,50,2.0,4.0,75,0.00,,,0.01,Wunderground v.1.15,2013-09-01 21:35:00,
2013-09-01 15:40:00,62.9,55.2,29.57,East,96,2.0,2.0,76,0.00,,,0.01,Wunderground v.1.15,2013-09-01 21:40:00,
2013-09-01 15:45:00,62.9,55.2,29.57,ENE,59,2.0,4.0,76,0.00,,,0.01,Wunderground v.1.15,2013-09-01 21:45:00,
2013-09-01 15:50:00,62.8,55.1,29.57,East,98,2.0,2.0,76,0.00,,,0.01,Wunderground v.1.15,2013-09-01 21:50:00,
2013-09-01 15:55:00,62.7,55.4,29.57,ENE,67,1.0,3.0,77,0.00,,,0.01,Wunderground v.1.15,2013-09-01 21:55:00,
2013-09-01 16:00:00,62.7,55.7,29.56,NE,49,1.0,4.0,78,0.00,,,0.01,Wunderground v.1.15,2013-09-01 22:00:00,
2013-09-01 16:05:00,62.7,56.1,29.56,East,94,1.0,4.0,79,0.00,,,0.01,Wunderground v.1.15,2013-09-01 22:05:00,
2013-09-01 16:10:00,62.9,55.9,29.57,East,91,0.0,4.0,78,0.00,,,0.01,Wunderground v.1.15,2013-09-01 22:10:00,
2013-09-01 16:15:00,62.9,55.9,29.57,ENE,74,0.0,4.0,78,0.00,,,0.01,Wunderground v.1.15,2013-09-01 22:15:00,
2013-09-01 16:20:00,63.2,55.9,29.57,East,98,1.0,1.0,77,0.00,,,0.01,Wunderground v.1.15,2013-09-01 22:20:00,
2013-09-01 16:25:00,64.0,55.5,29.57,NE,54,1.0,4.0,74,0.00,,,0.01,Wunderground v.1.15,2013-09-01 22:25:00,
2013-09-01 16:30:00,63.9,55.1,29.57,NNE,27,1.0,4.0,73,0.00,,,0.01,Wunderground v.1.15,2013-09-01 22:30:00,
2013-09-01 16:35:00,63.8,54.6,29.58,ENE,61,1.0,4.0,72,0.00,,,0.01,Wunderground v.1.15,2013-09-01 22:35:00,
2013-09-01 16:45:00,63.7,55.3,29.58,NE,55,1.0,4.0,74,0.00,,,0.01,Wunderground v.1.15,2013-09-01 22:45:00,
2013-09-01 16:50:00,63.9,55.1,29.58,ENE,74,1.0,4.0,73,0.00,,,0.01,Wunderground v.1.15,2013-09-01 22:50:00,
2013-09-01 16:55:00,63.8,54.6,29.58,ENE,66,1.0,4.0,72,0.00,,,0.01,Wunderground v.1.15,2013-09-01 22:55:00,
2013-09-01 17:00:00,63.4,55.0,29.58,ENE,71,2.0,2.0,74,0.00,,,0.01,Wunderground v.1.15,2013-09-01 23:00:00,
2013-09-01 17:05:00,63.2,55.1,29.59,NE,54,2.0,4.0,75,0.00,,,0.01,Wunderground v.1.15,2013-09-01 23:05:00,
2013-09-01 17:10:00,63.1,55.4,29.59,East,82,1.0,1.0,76,0.00,,,0.01,Wunderground v.1.15,2013-09-01 23:10:00,
2013-09-01 17:15:00,63.0,54.9,29.59,East,82,1.0,2.0,75,0.00,,,0.01,Wunderground v.1.15,2013-09-01 23:15:00,
2013-09-01 17:20:00,63.0,54.6,29.59,ENE,59,1.0,1.0,74,0.00,,,0.01,Wunderground v.1.15,2013-09-01 23:20:00,
2013-09-01 17:25:00,62.8,54.8,29.59,ENE,65,1.0,3.0,75,0.00,,,0.01,Wunderground v.1.15,2013-09-01 23:25:00,
2013-09-01 17:30:00,62.7,54.7,29.59,ENE,78,1.0,4.0,75,0.00,,,0.01,Wunderground v.1.15,2013-09-01 23:30:00,
2013-09-01 17:35:00,62.5,54.5,29.59,NE,39,1.0,4.0,75,0.00,,,0.01,Wunderground v.1.15,2013-09-01 23:35:00,
2013-09-01 17:40:00,62.1,54.4,29.59,NE,53,2.0,2.0,76,0.00,,,0.01,Wunderground v.1.15,2013-09-01 23:40:00,
2013-09-01 17:45:00,61.9,54.2,29.59,NE,53,2.0,4.0,76,0.00,,,0.01,Wunderground v.1.15,2013-09-01 23:45:00,
2013-09-01 17:50:00,62.0,54.7,29.59,ENE,57,1.0,4.0,77,0.00,,,0.01,Wunderground v.1.15,2013-09-01 23:50:00,
2013-09-01 18:00:00,62.2,54.9,29.60,East,98,1.0,1.0,77,0.00,,,0.01,Wunderground v.1.15,2013-09-02 00:00:00,
2013-09-01 18:05:00,62.1,54.8,29.60,NNW,337,1.0,4.0,77,0.00,,,0.01,Wunderground v.1.15,2013-09-02 00:05:00,
2013-09-01 18:10:00,62.2,54.9,29.61,NNE,32,1.0,4.0,77,0.00,,,0.01,Wunderground v.1.15,2013-09-02 00:10:00,
2013-09-01 18:15:00,62.1,54.4,29.61,NE,54,1.0,4.0,76,0.00,,,0.01,Wunderground v.1.15,2013-09-02 00:15:00,
2013-09-01 18:20:00,62.1,54.4,29.61,East,86,1.0,1.0,76,0.00,,,0.01,Wunderground v.1.15,2013-09-02 00:20:00,
2013-09-01 18:25:00,62.1,54.4,29.61,NE,55,1.0,4.0,76,0.00,,,0.01,Wunderground v.1.15,2013-09-02 00:25:00,
2013-09-01 18:30:00,62.0,54.3,29.61,ENE,63,1.0,4.0,76,0.00,,,0.01,Wunderground v.1.15,2013-09-02 00:30:00,
2013-09-01 18:35:00,61.9,54.6,29.61,ENE,63,1.0,4.0,77,0.00,,,0.01,Wunderground v.1.15,2013-09-02 00:35:00,
2013-09-01 18:45:00,62.0,54.7,29.61,East,86,0.0,4.0,77,0.00,,,0.01,Wunderground v.1.15,2013-09-02 00:45:00,
2013-09-01 18:50:00,61.9,54.6,29.61,ESE,105,0.0,4.0,77,0.00,,,0.01,Wunderground v.1.15,2013-09-02 00:50:00,
2013-09-01 19:00:00,61.5,54.6,29.61,East,86,1.0,4.0,78,0.00,,,0.01,Wunderground v.1.15,2013-09-02 01:00:00,
2013-09-01 19:05:00,61.3,54.4,29.61,NE,50,1.0,4.0,78,0.00,,,0.01,Wunderground v.1.15,2013-09-02 01:05:00,
2013-09-01 19:10:00,61.1,54.5,29.61,NE,54,0.0,4.0,79,0.00,,,0.01,Wunderground v.1.15,2013-09-02 01:10:00,
2013-09-01 19:15:00,60.8,54.2,29.61,NE,52,0.0,4.0,79,0.00,,,0.01,Wunderground v.1.15,2013-09-02 01:15:00,
2013-09-01 19:20:00,60.7,54.5,29.62,ENE,71,1.0,1.0,80,0.00,,,0.01,Wunderground v.1.15,2013-09-02 01:20:00,
2013-09-01 19:25:00,60.5,54.3,29.62,SE,138,0.0,4.0,80,0.00,,,0.01,Wunderground v.1.15,2013-09-02 01:25:00,
2013-09-01 19:35:00,60.4,54.5,29.62,ESE,106,0.0,4.0,81,0.00,,,0.01,Wunderground v.1.15,2013-09-02 01:35:00,
2013-09-01 19:40:00,60.3,54.8,29.62,ENE,71,0.0,4.0,82,0.00,,,0.01,Wunderground v.1.15,2013-09-02 01:40:00,
2013-09-01 19:45:00,60.2,54.7,29.62,ENE,71,0.0,4.0,82,0.00,,,0.01,Wunderground v.1.15,2013-09-02 01:45:00,
2013-09-01 19:50:00,60.2,54.7,29.63,ENE,71,0.0,4.0,82,0.00,,,0.01,Wunderground v.1.15,2013-09-02 01:50:00,
2013-09-01 19:55:00,60.1,54.6,29.63,ENE,67,0.0,4.0,82,0.00,,,0.01,Wunderground v.1.15,2013-09-02 01:55:00,
2013-09-01 20:00:00,60.0,54.8,29.63,ENE,72,0.0,4.0,83,0.00,,,0.01,Wunderground v.1.15,2013-09-02 02:00:00,
2013-09-01 20:05:00,59.9,54.7,29.63,ENE,71,0.0,4.0,83,0.00,,,0.01,Wunderground v.1.15,2013-09-02 02:05:00,
2013-09-01 20:10:00,59.9,55.1,29.63,ENE,71,0.0,4.0,84,0.00,,,0.01,Wunderground v.1.15,2013-09-02 02:10:00,
2013-09-01 20:15:00,59.8,53.6,29.64,ENE,67,0.0,4.0,80,0.00,,,0.01,Wunderground v.1.15,2013-09-02 02:15:00,
2013-09-01 20:20:00,59.7,52.5,29.64,ENE,67,0.0,4.0,77,0.00,,,0.01,Wunderground v.1.15,2013-09-02 02:20:00,
2013-09-01 20:30:00,59.1,52.6,29.64,NNE,19,0.0,4.0,79,0.00,,,0.02,Wunderground v.1.15,2013-09-02 02:30:00,
2013-09-01 20:35:00,58.8,53.3,29.65,NNE,19,0.0,4.0,82,0.00,,,0.02,Wunderground v.1.15,2013-09-02 02:35:00,
2013-09-01 20:40:00,58.4,53.9,29.65,NNE,19,0.0,4.0,85,0.04,,,0.02,Wunderground v.1.15,2013-09-02 02:40:00,
2013-09-01 20:45:00,57.8,53.6,29.65,NNE,19,0.0,4.0,86,0.04,,,0.03,Wunderground v.1.15,2013-09-02 02:45:00,
2013-09-01 20:55:00,56.8,53.3,29.65,NNE,26,0.0,4.0,88,0.04,,,0.03,Wunderground v.1.15,2013-09-02 02:55:00,
2013-09-01 21:00:00,56.7,53.8,29.64,NE,55,1.0,1.0,90,0.00,,,0.03,Wunderground v.1.15,2013-09-02 03:00:00,
2013-09-01 21:05:00,56.6,53.4,29.64,ENE,67,1.0,4.0,89,0.00,,,0.04,Wunderground v.1.15,2013-09-02 03:05:00,
2013-09-01 21:10:00,56.5,53.9,29.66,ENE,67,0.0,4.0,91,0.13,,,0.05,Wunderground v.1.15,2013-09-02 03:10:00,
2013-09-01 21:15:00,56.4,54.1,29.66,ENE,67,0.0,4.0,92,0.06,,,0.05,Wunderground v.1.15,2013-09-02 03:15:00,
2013-09-01 21:25:00,56.3,54.3,29.66,ENE,67,0.0,4.0,93,0.00,,,0.06,Wunderground v.1.15,2013-09-02 03:25:00,
2013-09-01 21:30:00,56.2,54.2,29.66,ENE,67,0.0,4.0,93,0.00,,,0.06,Wunderground v.1.15,2013-09-02 03:30:00,
2013-09-01 21:35:00,56.2,54.5,29.66,ENE,67,0.0,4.0,94,0.00,,,0.06,Wunderground v.1.15,2013-09-02 03:35:00,
2013-09-01 21:40:00,56.2,54.5,29.66,ENE,67,0.0,4.0,94,0.00,,,0.06,Wunderground v.1.15,2013-09-02 03:40:00,
2013-09-01 21:45:00,56.1,54.4,29.66,ENE,67,0.0,4.0,94,0.00,,,0.06,Wunderground v.1.15,2013-09-02 03:45:00,
2013-09-01 21:50:00,56.0,54.3,29.66,ENE,67,0.0,4.0,94,0.00,,,0.06,Wunderground v.1.15,2013-09-02 03:50:00,
2013-09-01 21:55:00,56.0,54.3,29.66,ENE,67,0.0,4.0,94,0.00,,,0.06,Wunderground v.1.15,2013-09-02 03:55:00,
2013-09-01 22:00:00,56.0,54.3,29.66,ENE,67,0.0,4.0,94,0.00,,,0.06,Wunderground v.1.15,2013-09-02 04:00:00,
2013-09-01 22:05:00,55.9,54.2,29.66,ENE,67,0.0,4.0,94,0.00,,,0.06,Wunderground v.1.15,2013-09-02 04:05:00,
2013-09-01 22:10:00,55.9,54.5,29.66,ENE,67,0.0,4.0,95,0.00,,,0.06,Wunderground v.1.15,2013-09-02 04:10:00,
2013-09-01 22:15:00,55.9,54.5,29.66,ENE,67,0.0,4.0,95,0.00,,,0.06,Wunderground v.1.15,2013-09-02 04:15:00,
2013-09-01 22:20:00,55.9,54.5,29.66,ENE,67,0.0,4.0,95,0.00,,,0.06,Wunderground v.1.15,2013-09-02 04:20:00,
2013-09-01 22:25:00,55.9,54.5,29.66,ENE,67,0.0,4.0,95,0.00,,,0.06,Wunderground v.1.15,2013-09-02 04:25:00,
2013-09-01 22:30:00,55.9,54.5,29.66,ENE,67,0.0,4.0,95,0.00,,,0.06,Wunderground v.1.15,2013-09-02 04:30:00,
2013-09-01 22:35:00,55.9,54.5,29.66,ENE,67,0.0,4.0,95,0.00,,,0.06,Wunderground v.1.15,2013-09-02 04:35:00,
2013-09-01 22:40:00,55.8,54.4,29.65,ENE,67,0.0,4.0,95,0.00,,,0.06,Wunderground v.1.15,2013-09-02 04:40:00,
2013-09-01 22:45:00,55.8,54.4,29.65,ENE,67,0.0,4.0,95,0.00,,,0.06,Wunderground v.1.15,2013-09-02 04:45:00,
2013-09-01 22:55:00,55.7,54.3,29.65,ENE,67,0.0,4.0,95,0.00,,,0.06,Wunderground v.1.15,2013-09-02 04:55:00,
2013-09-01 23:00:00,55.7,54.3,29.65,ENE,67,0.0,4.0,95,0.00,,,0.06,Wunderground v.1.15,2013-09-02 05:00:00,
2013-09-01 23:05:00,55.7,54.6,29.65,ENE,67,0.0,4.0,96,0.00,,,0.06,Wunderground v.1.15,2013-09-02 05:05:00,
2013-09-01 23:10:00,55.7,54.3,29.65,ENE,67,0.0,4.0,95,0.00,,,0.06,Wunderground v.1.15,2013-09-02 05:10:00,
2013-09-01 23:15:00,55.6,54.5,29.65,ENE,67,0.0,4.0,96,0.00,,,0.06,Wunderground v.1.15,2013-09-02 05:15:00,
2013-09-01 23:20:00,55.6,54.5,29.64,ENE,67,0.0,4.0,96,0.00,,,0.06,Wunderground v.1.15,2013-09-02 05:20:00,
2013-09-01 23:25:00,55.7,54.6,29.64,ENE,67,0.0,4.0,96,0.00,,,0.06,Wunderground v.1.15,2013-09-02 05:25:00,
2013-09-01 23:30:00,55.6,54.5,29.64,ENE,67,0.0,4.0,96,0.00,,,0.06,Wunderground v.1.15,2013-09-02 05:30:00,
2013-09-01 23:35:00,55.5,54.4,29.65,ENE,67,0.0,4.0,96,0.00,,,0.06,Wunderground v.1.15,2013-09-02 05:35:00,
2013-09-01 23:40:00,55.5,54.4,29.65,ENE,67,0.0,4.0,96,0.00,,,0.06,Wunderground v.1.15,2013-09-02 05:40:00,
2013-09-01 23:45:00,55.5,54.4,29.65,ENE,67,0.0,4.0,96,0.00,,,0.06,Wunderground v.1.15,2013-09-02 05:45:00,
2013-09-01 23:50:00,55.5,54.4,29.65,ENE,67,0.0,4.0,96,0.00,,,0.06,Wunderground v.1.15,2013-09-02 05:50:00,
2013-09-01 23:55:00,55.4,54.3,29.65,ENE,67,0.0,4.0,96,0.00,,,0.06,Wunderground v.1.15,2013-09-02 05:55:00,